This is the latest recevied weather packets stored in our database for station/object WA4IKQ. If no packets are shown the sender has not sent any weather packets the latest 10 day(s).
| Time | Temp. | Humidity | Pressure | Rain* | Wind** | Luminosity | Snow |
|---|---|---|---|---|---|---|---|
| 1778013981 | 28.33° C | 46% | 1015.2 hPa | 0 mm | 0.89 m/s, 48° | - | - |
| 1778013927 | 28.33° C | 46% | 1015.2 hPa | 0 mm | 0.89 m/s, 48° | - | - |
| 1778013693 | 28.33° C | 45% | 1015.2 hPa | 0 mm | 1.34 m/s, 6° | - | - |
| 1778013628 | 28.33° C | 45% | 1015.2 hPa | 0 mm | 1.34 m/s, 6° | - | - |
| 1778013437 | 28.33° C | 45% | 1015.2 hPa | 0 mm | 1.79 m/s, 48° | - | - |
| 1778013328 | 28.33° C | 45% | 1015.2 hPa | 0 mm | 1.79 m/s, 48° | - | - |
| 1778013094 | 28.89° C | 44% | 1015.2 hPa | 0 mm | 3.58 m/s, 59° | - | - |
| 1778013028 | 28.89° C | 44% | 1015.2 hPa | 0 mm | 3.58 m/s, 59° | - | - |
| 1778012765 | 28.89° C | 45% | 1015.3 hPa | 0 mm | 3.13 m/s, 38° | - | - |
| 1778012729 | 28.89° C | 45% | 1015.3 hPa | 0 mm | 3.13 m/s, 38° | - | - |
| 1778012477 | 28.89° C | 45% | 1015.2 hPa | 0 mm | 2.24 m/s, 14° | - | - |
| 1778012426 | 28.89° C | 45% | 1015.2 hPa | 0 mm | 2.24 m/s, 14° | - | - |
| 1778012171 | 28.33° C | 45% | 1015.3 hPa | 0 mm | 1.34 m/s, 349° | - | - |
| 1778012127 | 28.33° C | 45% | 1015.3 hPa | 0 mm | 1.34 m/s, 349° | - | - |
| 1778011891 | 28.33° C | 46% | 1015.4 hPa | 0 mm | 0.45 m/s, 38° | - | - |
| 1778011827 | 28.33° C | 46% | 1015.4 hPa | 0 mm | 0.45 m/s, 38° | - | - |
| 1778011592 | 28.33° C | 46% | 1015.4 hPa | 0 mm | 1.79 m/s, 1° | - | - |
| 1778011527 | 28.33° C | 46% | 1015.4 hPa | 0 mm | 1.79 m/s, 1° | - | - |
| 1778011274 | 28.33° C | 46% | 1015.6 hPa | 0 mm | 1.79 m/s, 98° | - | - |
| 1778011227 | 28.33° C | 46% | 1015.6 hPa | 0 mm | 1.79 m/s, 98° | - | - |
| 1778010960 | 28.33° C | 46% | 1015.7 hPa | 0 mm | 1.79 m/s, 66° | - | - |
| 1778010928 | 28.33° C | 46% | 1015.7 hPa | 0 mm | 1.79 m/s, 66° | - | - |
| 1778010710 | 28.33° C | 46% | 1015.6 hPa | 0 mm | 1.34 m/s, 68° | - | - |
| 1778010678 | 28.33° C | 46% | 1015.6 hPa | 0 mm | 1.34 m/s, 68° | - | - |
| 1778010629 | 28.33° C | 46% | 1015.6 hPa | 0 mm | 1.34 m/s, 68° | - | - |
* Rain latest hour (hover to see other rain measurements)
** Current wind speed in m/s (hover to see current wind gust speed)